Tracking 19796 objects as of 19-Jul-2019
HD Live streaming from Space Station
objects crossing your sky now

INTELSAT 3-F3

Track INTELSAT 3-F3 now!
INTELSAT 3-F3 is classified as:


NORAD ID: 3674
Int'l Code: 1969-011A
Perigee: 39,910.4 km
Apogee: 41,548.0 km
Inclination: 15.8 °
Period: 1,695.5 minutes
Semi major axis: 47100 km
RCS: 0.4044 m2 (medium)
Launch date: February 6, 1969
Source: International Telecommunications Satellite Organization (ITSO)
Launch site: AIR FORCE EASTERN TEST RANGE (AFETR)
aabbcc
Your satellite tracking list
Your tracking list is empty




NASA's NSSDC Master Catalog

Two Line Element Set (TLE):
1  3674U 69011A   19199.83847095 -.00000198 +00000-0 +00000-0 0  9999
2  3674 015.7711 320.8728 0173847 312.3799 050.0000 00.84931534045256
Source of the keplerian elements: AFSPC